Weather in Voldino

Russia / Komi Republic     62°15′31″N   54°10′55″E
temp.,
°C
wind,
m/s
gust,
m/s
humid.,
%
clouds,
%
prec.,
mm/h
press.,
hPa
HPBL,
m
21 april, wed
wed2100:00−3wsw11955 0.0 103110
03:00−4sse00955 0.0 103110
06:00+2s12764 0.0 103185
09:00+8sse24595 0.0 1030600
12:00+10sse45523 0.0 10281149
15:00+11sse475337 0.0 10271381
18:00+7se3968100 0.0 1026213
21:00+6sse41378100 0.0 1025453
22 april, thu
thu2200:00+4sse41375100 0.0 1023475
03:00+4sse41473100 0.0 1022513
06:00+5sse51368100 0.0 1021978
09:00+4sse51395100 0.1 1021842
12:00+3sse51296100 0.3 1021938
15:00+4s51296100 0.6 10211058
18:00+4s51292100 0.0 1021913
21:00+5s51189100 0.1 1022809
23 april, fri
fri2300:00+4s4119199 0.0 1022572
03:00+4s4996100 1.3 1022885
06:00+5s41093100 0.1 1023632
09:00+8ssw467191 0.1 10241098
12:00+8s477894 0.0 1024559
15:00+9s377197 0.0 1025564
18:00+8sse367792 0.0 1025205
21:00+6sse268599 0.0 1026130
24 april, sat
sat2400:00+5se2493100 0.0 1026112
03:00+5se2597100 0.0 1026125
06:00+5se2594100 0.0 1026209
09:00+8se357897 0.1 1026664
12:00+10se345783 0.2 10241414
15:00+9e4662100 0.3 10231110
18:00+8ese2770100 0.0 1021265
21:00+6e2779100 0.0 1020224
25 april, sun
sun2500:00+6e3986100 0.0 1018390
03:00+4e3988100 0.0 1016528
06:00+5ese4893100 0.7 1014908
09:00+5ese4997100 1.5 10131001
12:00+8se4870100 0.4 10111220
15:00+9ese4766100 0.9 10101300
18:00+6ese4882100 0.4 1008787
21:00+4ese2496100 0.9 1007814